This is the latest recevied weather packets stored in our database for station/object W5CMS-13. If no packets are shown the sender has not sent any weather packets the latest 10 day(s).
| Time | Temp. | Humidity | Pressure | Rain* | Wind** | Luminosity | Snow |
|---|---|---|---|---|---|---|---|
| 1777700417 | 12.22° C | 86% | 1018.1 hPa | 0 mm | - | - | - |
| 1777699818 | 12.22° C | 85% | 1017.9 hPa | 0 mm | - | - | - |
| 1777699217 | 12.78° C | 86% | 1018.1 hPa | 0 mm | - | - | - |
| 1777698617 | 12.78° C | 84% | 1018.2 hPa | 0 mm | - | - | - |
| 1777698017 | 12.78° C | 84% | 1018.3 hPa | 0 mm | - | - | - |
| 1777697417 | 13.33° C | 84% | 1018 hPa | 0 mm | - | - | - |
| 1777696818 | 13.33° C | 82% | 1018 hPa | 0 mm | - | - | - |
| 1777696217 | 13.89° C | 82% | 1017.9 hPa | 0 mm | - | - | - |
| 1777695617 | 13.33° C | 82% | 1018 hPa | 0 mm | - | - | - |
| 1777695017 | 13.89° C | 81% | 1017.8 hPa | 0 mm | - | - | - |
| 1777694418 | 13.89° C | 79% | 1017.7 hPa | 0 mm | - | - | - |
| 1777693818 | 14.44° C | 78% | 1017.7 hPa | 0 mm | - | - | - |
| 1777693217 | 15° C | 77% | 1017.8 hPa | 0 mm | - | - | - |
| 1777692618 | 15° C | 77% | 1017.9 hPa | 0 mm | - | - | - |
| 1777692021 | 15° C | 77% | 1017.8 hPa | 0 mm | - | - | - |
| 1777691419 | 15° C | 76% | 1017.8 hPa | 0 mm | - | - | - |
| 1777690818 | 15.56° C | 75% | 1017.5 hPa | 0 mm | - | - | - |
| 1777690217 | 15.56° C | 74% | 1017.4 hPa | 0 mm | - | - | - |
| 1777689617 | 16.11° C | 73% | 1017.5 hPa | 0 mm | - | - | - |
| 1777689017 | 16.11° C | 73% | 1017.4 hPa | 0 mm | - | - | - |
| 1777688417 | 16.11° C | 72% | 1017.2 hPa | 0 mm | - | - | - |
| 1777687817 | 16.11° C | 72% | 1017.1 hPa | 0 mm | - | - | - |
| 1777687217 | 16.11° C | 71% | 1016.8 hPa | 0 mm | - | - | - |
| 1777686618 | 16.11° C | 71% | 1016.5 hPa | 0 mm | - | - | - |
| 1777686018 | 16.11° C | 70% | 1016.3 hPa | 0 mm | - | - | - |
* Rain latest hour (hover to see other rain measurements)
** Current wind speed in m/s (hover to see current wind gust speed)